#timestamp,LO_Frequency,Hit,StdDev 
1696489215.2,286046997.1,Y
1696489235.9,286046998.6,P
1696489255.7,286046996.6,P
1696489275.6,286046997.1,P
1696489295.4,286046997.4,Y
1696489315.3,286046996.9,P
1696489335.1,286046999.5,N
1696489336.0,286046999.5,N
1696489355.8,286046997.3,N
1696489375.7,286046997.7,N
1696489395.5,286046997.9,N
1696489415.4,286046995.5,Y
1696489435.2,286046997.3,P
1696489455.0,286046996.9,P
1696489455.9,286046996.9,P
1696489475.8,286046998.0,Y
1696489495.6,286046999.4,P
1696489515.4,286046996.8,P
1696489535.3,286046997.3,N
1696489555.1,286046995.0,Y
1696489575.9,286046997.8,P
1696489595.7,286046995.0,P
1696489615.5,286046996.1,P
1696489635.4,286046995.9,Y
1696489655.2,286046999.2,P
1696489675.1,286046997.2,N
1696489676.0,286046997.2,N
1696489695.8,286046996.8,Y
1696489715.6,286046996.5,P
1696489735.5,286046997.0,P
1696489755.3,286046997.8,P
1696489775.1,286046994.9,Y
1696489795.9,286046996.6,P
1696489815.7,286046997.7,P
1696489835.6,286046995.4,P
1696489855.4,286046995.8,Y
1696489875.2,286046996.8,P
1696489895.1,286046997.5,P
1696489896.0,286046997.5,P
1696489915.8,286046995.5,Y
1696489935.7,286046996.9,P
1696489955.5,286046997.6,P
1696489975.3,286046997.8,P
1696489995.2,286046995.6,Y
1696490015.0,286046997.1,P
1696490015.9,286046997.1,P
1696490035.8,286046997.9,P
1696490055.6,286046994.9,Y
1696490075.4,286046996.5,P
1696490095.3,286046999.1,N
1696490115.1,286046997.9,N
1696490135.8,286046994.9,Y
1696490155.7,286046996.6,P
1696490175.5,286046996.8,P
1696490195.4,286046997.8,P
1696490215.2,286046998.0,Y
1696490235.0,286046997.3,P
1696490235.9,286046997.3,P
1696490255.8,286046997.4,P
1696490275.6,286046994.9,Y
1696490295.5,286046998.1,P
1696490315.3,286046998.1,P
1696490335.1,286047011.9,P
1696490355.9,286046996.8,N
1696490375.7,286046994.9,N
1696490395.6,286046995.4,N
1696490415.4,286046996.4,N
1696490435.2,286046996.3,N
1696490455.1,286046994.5,N
1696490456.0,286046994.5,N
1696490475.8,286046994.4,N
1696490495.6,286046992.4,N
1696490515.5,286046992.7,N
1696490535.3,286046991.4,N
1696490555.2,286046991.4,N
1696490575.9,286046990.0,N
1696490595.7,286046987.3,N
1696490615.6,286046987.2,N
1696490635.4,286046988.0,N
1696490655.3,286046986.1,N
1696490675.1,286046986.4,N
1696490676.0,286046986.4,N
1696490695.8,286046983.9,N
1696490715.7,286046985.0,N
1696490735.5,286046982.6,N
1696490755.3,286046983.2,N
1696490775.2,286046980.6,Y
1696490795.0,286046987.8,P
1696490795.9,286046987.8,P
1696490815.8,286046988.2,P
1696490835.6,286046985.9,Y
1696490855.4,286046996.7,P
1696490875.3,286046995.3,N
1696490895.1,286046996.2,N
1696490915.9,286046993.4,N
1696490935.7,286046994.2,N
1696490955.5,286046991.8,Y
1696490975.4,286046997.1,P
1696490995.2,286046997.8,N
1696491015.1,286046997.9,N
1696491016.0,286046997.9,N
1696491035.8,286046995.6,Y
1696491055.6,286046999.5,P
1696491075.5,286046997.3,N
1696491095.3,286046997.8,N
1696491115.2,286046995.5,Y
1696491135.9,286046997.5,P
1696491155.7,286046996.2,P
1696491175.6,286046996.0,P
1696491195.4,286046993.8,Y
1696491215.3,286046997.5,P
1696491235.1,286046995.1,P
1696491236.0,286046995.1,P
1696491255.8,286046995.1,Y
1696491275.7,286046998.9,P
1696491295.5,286046999.4,N
1696491315.3,286046997.2,N
1696491335.2,286046997.7,N
1696491355.0,286046997.9,N
1696491355.9,286046997.9,N
1696491375.8,286046993.7,Y
1696491395.6,286046995.0,P
1696491415.4,286046995.6,P
1696491435.3,286046995.9,P
1696491455.1,286046993.4,Y
1696491475.9,286046997.7,P
1696491495.7,286046995.2,P
1696491515.5,286046995.5,P
1696491535.4,286046993.5,Y
1696491555.2,286046997.4,P
1696491575.1,286046995.3,P
1696491576.0,286046995.3,P
1696491595.8,286046996.0,Y
1696491615.6,286046999.5,P
1696491635.5,286046999.6,N
1696491655.3,286046998.0,N
1696491675.1,286046994.9,Y
1696491695.9,286046995.4,P
1696491715.7,286046994.9,P
1696491735.6,286046993.4,P
1696491755.4,286046993.9,Y
1696491775.2,286046999.1,P
1696491795.1,286046996.8,N
1696491796.0,286046996.8,N
1696491815.8,286046997.1,N
1696491835.7,286046995.5,Y
1696491855.5,286046999.0,P
1696491875.3,286046999.1,N
1696491895.2,286046997.2,P
1696491915.0,286046995.6,Y
1696491915.9,286046995.6,P
1696491935.8,286046997.3,N
1696491955.6,286046995.5,P
1696491975.4,286046995.9,Y
1696491995.3,286046996.5,P
1696492015.1,286046997.2,P
1696492035.8,286046995.9,P
1696492055.7,286046996.4,Y
1696492075.5,286046997.3,P
1696492095.4,286046995.9,P
1696492115.2,286046994.3,P
1696492135.0,286046994.0,Y
1696492135.9,286046994.0,P
1696492155.8,286046996.8,P
1696492175.6,286046997.5,N
1696492195.5,286046998.0,N
1696492215.3,286046995.8,Y
1696492235.1,286046998.8,P
1696492255.9,286046999.5,N
1696492275.7,286046997.7,N
1696492295.5,286046995.8,Y
1696492315.4,286046995.4,P
1696492335.2,286046995.3,P
1696492355.1,286046995.8,P
1696492356.0,286046995.8,Y
1696492375.8,286046999.3,P
1696492395.6,286046996.9,N
1696492415.5,286046996.5,N
1696492435.3,286046996.7,N
1696492455.2,286046997.3,N
1696492475.9,286046997.5,N
1696492495.7,286046995.6,Y
1696492515.6,286046996.6,P
1696492535.4,286046997.6,P
1696492555.2,286046993.3,P
1696492575.1,286046996.1,N
1696492576.0,286046996.1,N
1696492595.8,286046993.3,Y
1696492615.7,286046997.2,P
1696492635.5,286046996.9,P
1696492655.3,286046997.4,P
1696492675.2,286046995.0,Y
1696492695.0,286047001.2,P
1696492695.9,286047001.2,N
1696492715.8,286046998.4,N
1696492735.6,286046999.2,N
1696492755.4,286046997.7,N
1696492775.3,286046997.4,N
1696492795.1,286046995.4,N
